FENGYUN 1C DEB, 38493

Orbit data source: Space-Track

FENGYUN 1C DEB, 38493 is space debris in SSO originally from a launch on Mon, 10 May 1999 UTC launched from the Taiyaun Space Center, China (TSC). Fengyun 1C debris stems from the Chinese weather satellite Fengyun-1C, which was intentionally destroyed by a Chinese anti-satellite missile in 2007. This event dramatically increased the amount of space debris, with thousands of trackable fragments posing hazards to satellites and human spaceflight. The Fengyun 1C debris cloud has become a focal point in discussions about space sustainability and the need for international regulations to prevent the creation of new debris.

Loading next visibility...
Identifier
38493, 1999-025ESC
Orbit
SSO
Country
Flag of CNCN / PRC
Related business
Manufacturer
Unknown
Mission
Spacecraft
Bus & Motor
Unknown
Mass
Unknown
Launch date (UTC)
Icon of a cake. It is the launch day of the satellite!1999-05-10 (27 years ago)
Launch vehicle
Unknown
Launch site
Taiyaun Space Center, China (TSC)
Object type
Payload
Rocket body
Debris
Shape & HBR
Unknown shape, 0.1 m
Radar Cross Section
Small (<0.1 m²)

Expand to show TLE details & history
Last TLE update: 1 week ago

TLE from 1 week ago
0 FENGYUN 1C DEB
1 38493U 99025ESC 26123.62627599  .00000227  00000-0  18912-3 0  9997
2 38493  99.1009  78.9105 0425766 236.9753 118.9809 13.62490951584308
Epoch: 2026-05-03T15:01Z
TLE epoch observation values (Epoch: 2026-05-03T15:01:50.245Z)
Latitude
0.00003°
Longitude
-8.07598°
Altitude
1,192.215 km
Speed
7.178 km/s
True Right ascension
05h 15m 38s
True Declination
0° 00' 00"
Sunlit
Object was in daylight at epoch
Visualization orbit readout
Latitude
Unknown
Longitude
Unknown
Altitude
Unknown
Speed
Unknown
Apparent Right ascension
Unknown
Apparent Declination
Unknown
Sunlit
N/A
Visualization observer readout
Local Sidereal Time
22:12:07
Azimuth
Unknown
Elevation
Unknown
Doppler factor
Unknown
Orbital elements
Apogee altitude
1,339.054 km
Perigee altitude
708.747 km
Semi-major axis
7,402.037 km
Eccentricity
0.04258
Inclination
99.1009°
RAAN
78.9105°
Arg. of periapsis
236.9753°
True anomaly
123.13786°
Mean anomaly
118.9809°
Eccentric anomaly
121.07038°
Mean motion
3.40813 °/min
Orbital period
105.63 mins
BSTAR
0.00018912
Loading maneuver chart data...
Computing Atmospheric mass density...

Documentation

Showing up to 5 results
|